SCP
-0 0 0 0 0 0 0 0 1 1 0 1 0 0 0 0 0 0 0 0 0 0 0 0 0 0 0 0 0 0 0 0 0 0 0 0 0 0 0 0 0 0 0
0 0 0 0 0 0 0 0 1 1 1 0 0 0 0 0 0 0 0 0 0 0 0 0 0 0 0 0 0 0 0 0 0 0 0 0 0 0 0 0 0 0 0
0 0 0 0 0 0 0 0 0 1 1 1 0 0 0 0 0 0 0 0 0 0 0 0 0 0 0 0 0 0 0 0 0 0 0 0 0 0 0 0 0 0 0
0 0 0 0 0 0 0 0 0 1 0 0 0 0 0 0 0 0 0 0 0 0 0 0 0 0 0 0 0 0 0 0 0 0 0 0 0 0 0 0 0 0 0
0 0 0 0 0 0 0 0 0 0 0 0 0 0 0 0 0 0 0 0 0 0 0 0 0 0 0 0 0 0 0 0 0 0 0 0 0 0 0 0 0 0 0
0 0 0 0 0 0 0 0 0 0 0 1 0 0 0 0 0 0 0 0 0 0 0 0 0 0 0 0 0 0 0 0 0 0 0 0 0 0 0 0 0 0 0
0 0 0 0 0 0 0 0 0 -0 0 1 0 0 0 0 0 0 0 0 0 0 0 0 0 0 0 0 0 0 0 0 0 0 0 0 0 0 0 0 0 0 0
0 0 0 0 0 0 0 0 0 0 0 0 0 0 0 0 0 0 0 0 0 0 0 0 0 0 0 0 0 0 0 0 0 0 0 0 0 0 0 0 0 0 0
0 0 0 0 0 0 0 0 0 0 0 -0 0 0 0 0 0 0 0 0 0 0 0 0 0 0 0 0 0 0 0 0 0 0 0 0 0 0 0 0 0 0 0
0 0 0 0 0 0 0 0 0 0 0 0 0 0 0 0 0 0 0 0 0 0 0 0 0 0 0 0 0 0 0 0 0 0 0 0 0 0 0 0 0 0 0
0 0 0 0 0 0 0 0 0 0 0 0 0 0 0 0 0 0 0 0 0 0 0 0 0 0 0 0 0 0 0 0 0 0 0 0 0 0 0 0 0 0 0
-0 0 0 0 0 0 0 0 0 0 0 0 0 0 0 0 0 0 0 0 0 0 0 0 0 0 0 0 0 0 0 0 0 0 0 0 0 0 0 0 0 0 0
-0 0 0 0 0 0 0 0 0 0 0 0 0 0 0 0 0 0 0 0 0 0 0 0 0 0 0 0 0 0 0 0 0 0 0 0 0 0 0 0 0 0 0
0 0 0 0 0 0 0 0 0 0 0 0 0 0 0 0 0 0 0 0 0 0 0 0 0 0 0 0 0 0 0 0 0 0 0 0 0 0 0 0 0 0 0
0 0 0 0 0 0 0 0 0 0 0 0 0 0 0 0 0 0 0 0 0 0 0 0 0 0 0 0 0 0 0 0 0 0 0 0 0 0 0 0 0 0 0
0 0 0 0 0 0 0 0 0 0 0 0 0 0 0 0 0 0 0 0 0 0 0 0 0 0 0 0 0 0 0 0 0 0 0 0 0 0 0 0 0 0 0
0 0 0 0 0 0 0 0 0 0 0 0 0 0 0 0 0 0 0 0 0 0 0 0 0 0 0 0 0 0 0 0 0 0 0 0 0 0 0 0 0 0 0
0 0 0 0 0 0 0 0 0 0 0 0 0 0 0 0 0 0 0 0 0 0 0 0 0 0 0 0 0 0 0 0 0 0 0 0 0 0 0 0 0 0 0
0 0 0 0 0 0 0 0 0 0 0 0 0 0 0 0 0 0 0 0 0 0 0 0 0 0 0 0 0 0 0 0 0 0 0 0 0 0 0 0 0 0 0
0 0 0 0 0 0 0 0 0 0 0 0 0 0 0 0 0 0 0 0 0 0 0 0 0 0 0 0 0 0 0 0 0 0 0 0 0 0 0 0 0 0 0
0 0 0 0 0 0 0 0 0 0 0 0 0 0 0 0 0 0 0 0 0 0 0 0 0 0 0 0 0 0 0 0 0 0 0 0 0 0 0 0 0 0 0
0 0 0 0 0 0 0 0 0 0 0 0 0 0 0 0 0 0 0 0 0 0 0 0 0 0 0 0 0 0 0 0 0 0 0 0 0 0 0 0 0 0 0
0 0 0 0 0 0 0 0 0 0 0 0 0 0 0 0 0 0 0 0 0 0 0 0 0 0 0 0 0 0 0 0 0 0 0 0 0 0 0 0 0 0 0
0 0 0 0 0 0 0 0 0 0 0 0 0 0 0 0 0 0 0 0 0 0 0 0 0 0 0 0 0 0 0 0 0 0 0 0 0 0 0 0 0 0 0
0 0 0 0 0 0 0 0 0 0 0 0 0 0 0 0 0 0 0 0 0 0 0 0 0 0 0 0 0 0 0 0 0 0 0 0 0 0 0 0 0 0 0
0 0 0 0 0 0 -0 0 0 0 0 0 0 0 0 0 0 0 0 0 0 0 0 0 0 0 0 0 0 0 0 0 0 0 0 0 0 0 0 0 0 0 0
Wind_Speed_500mb
55 56 53 56 57 60 70 91 97 98 91 90 86 84 85 86 91 81 72 65 65 62 61 57 57 56 53 49 52 48 44 41 37 35 35 37 31 28 28 26 24 19 16
56 55 56 57 66 64 53 78 103 103 98 96 95 91 89 88 96 87 78 74 70 63 63 66 64 62 56 48 46 48 47 43 43 38 39 38 33 30 29 27 26 23 20
55 53 57 61 67 76 60 40 86 108 104 98 101 99 98 94 101 97 84 81 75 68 69 76 72 67 60 52 47 45 47 44 43 43 43 43 36 32 29 28 27 24 20
63 62 60 61 62 68 80 54 66 113 113 106 103 107 106 102 101 106 92 88 80 72 72 67 63 66 61 55 51 50 46 44 46 48 47 42 38 35 31 29 26 23 19
61 62 66 65 61 62 64 69 45 102 109 110 106 108 111 111 105 109 105 95 89 80 79 77 69 64 63 57 55 53 51 49 46 45 45 43 40 37 32 29 26 23 20
67 65 66 69 69 67 63 58 75 67 107 118 103 103 105 108 111 113 113 104 97 88 82 82 77 67 65 60 56 53 49 53 49 45 42 40 40 37 33 29 27 25 23
66 65 64 69 72 75 69 62 68 88 87 120 95 92 102 103 115 119 119 113 102 96 86 81 80 79 70 62 57 53 52 51 48 45 42 39 39 35 34 32 29 26 24
70 65 60 66 72 74 70 69 60 66 86 83 97 90 76 86 92 125 128 119 108 102 95 87 81 81 76 68 61 59 61 54 45 44 39 36 36 35 33 31 29 26 23
76 76 74 63 62 65 68 61 66 59 64 56 31 58 36 29 58 94 125 122 113 108 101 92 87 84 79 72 65 63 61 58 49 43 35 37 36 35 33 31 28 25 22
83 84 84 78 73 67 67 62 59 69 56 55 76 44 27 17 36 35 98 117 114 110 108 99 93 90 81 75 73 65 67 59 48 42 32 31 35 35 34 31 28 24 22
85 85 85 83 81 80 78 71 60 57 72 75 83 106 63 50 60 51 58 88 111 117 113 110 99 95 85 78 78 70 67 58 47 40 28 29 33 34 33 30 26 22 20
85 85 87 85 77 76 78 73 70 64 64 69 78 90 92 74 48 49 60 82 86 84 99 102 104 95 82 81 79 72 65 60 52 43 34 30 28 28 31 28 25 20 17
86 90 80 84 88 78 70 68 70 66 64 70 75 80 70 79 72 57 47 77 69 69 60 76 81 87 92 90 78 74 69 63 56 48 46 33 29 25 25 26 22 17 17
91 88 88 84 84 82 78 68 66 70 61 71 82 75 85 74 79 49 19 66 58 54 67 64 71 73 78 77 82 81 77 68 57 56 58 50 39 29 26 25 24 21 19
95 94 91 87 86 86 79 75 66 68 68 75 77 86 103 90 99 87 74 43 70 49 57 63 76 80 80 75 88 95 87 77 70 67 66 57 37 31 32 29 28 25 23
92 91 92 92 93 84 83 76 74 66 70 77 87 96 107 98 93 65 73 61 51 55 64 73 93 93 96 91 87 89 85 81 79 79 69 60 48 34 32 30 29 28 24
86 87 93 91 91 90 87 78 76 74 70 86 84 87 110 96 97 94 89 84 42 67 57 80 93 89 91 93 84 82 83 90 77 65 64 60 40 47 37 31 28 29 26
84 85 86 87 89 91 90 82 77 76 76 95 93 98 92 89 93 101 97 96 71 63 89 76 93 105 92 90 97 98 83 70 70 63 62 54 64 38 38 34 34 28 32
81 87 81 87 86 88 91 85 69 68 81 97 93 93 99 96 92 97 101 99 96 94 90 106 90 92 92 93 94 94 96 82 70 62 63 66 45 44 42 45 38 37 35
83 84 89 83 87 87 89 90 76 64 80 86 98 93 93 96 85 106 103 102 108 104 106 93 74 78 86 91 98 103 93 79 73 73 68 62 57 53 50 45 48 39 37
81 81 84 93 84 83 88 95 87 75 76 98 91 85 92 93 94 96 99 106 110 104 98 86 69 75 86 96 106 102 97 90 82 82 75 68 63 63 58 54 48 45 39
80 78 78 81 89 75 89 93 92 78 76 103 90 90 89 92 91 95 99 97 97 102 91 83 84 80 86 97 110 107 103 94 81 77 76 70 72 67 59 54 52 49 40
73 81 80 85 86 81 87 81 87 88 96 94 101 94 92 98 96 93 87 82 80 84 79 74 82 85 87 100 113 107 103 100 92 80 75 68 70 64 60 54 48 43 40
67 72 74 90 89 83 91 79 78 86 93 98 101 95 95 99 94 91 87 84 77 74 68 68 62 67 72 80 90 112 106 96 89 80 74 71 72 65 59 51 45 42 31
53 67 69 81 94 79 91 89 78 83 86 97 98 93 90 94 96 92 88 82 79 70 61 52 47 46 47 69 87 99 98 93 81 70 73 77 74 64 53 48 43 38 39
42 51 59 80 86 63 72 85 77 80 96 100 101 100 97 97 97 95 90 86 78 77 70 63 60 59 66 72 86 92 96 93 89 67 71 67 60 63 47 49 46 53 48
Wind_Direction_500mb
264 257 250 246 236 237 248 219 222 223 221 221 219 215 210 205 203 205 203 206 204 203 205 198 197 198 199 200 205 206 207 207 205 204 206 204 204 214 222 230 243 257 271
267 259 251 247 243 237 234 240 224 222 221 219 221 217 214 208 204 206 204 204 208 207 208 202 200 201 198 195 203 204 208 206 202 205 212 215 225 224 227 235 243 253 262
266 263 257 246 243 240 241 234 233 226 224 219 223 218 216 211 206 208 205 205 209 220 212 211 205 206 207 209 204 202 204 197 199 201 214 226 226 227 232 236 243 250 237
268 265 258 252 245 247 250 245 235 225 224 219 220 223 218 213 211 210 209 207 210 215 211 209 200 203 205 209 205 210 204 199 199 206 215 222 228 231 233 237 241 232 231
268 266 259 252 250 249 252 260 239 220 219 220 219 225 221 217 212 212 210 210 210 213 209 209 209 208 208 208 215 218 219 200 201 204 214 223 227 232 235 237 226 223 223
265 265 262 254 249 250 248 254 235 233 222 220 215 221 229 224 214 214 211 212 211 212 216 215 218 218 216 217 220 220 212 200 199 213 219 220 227 230 230 220 216 216 217
263 263 261 255 249 250 250 249 254 243 219 216 205 205 214 223 225 214 212 212 211 211 216 218 220 219 217 219 219 207 200 202 201 210 213 225 228 222 212 210 211 215 221
259 257 259 257 251 250 251 250 253 258 235 212 200 207 200 203 206 215 213 210 212 211 213 220 221 218 218 214 211 200 199 205 203 205 217 215 209 207 207 209 211 216 224
254 252 251 252 253 248 249 252 241 247 255 250 214 201 186 193 194 197 205 208 211 213 213 218 219 217 217 215 206 200 203 207 209 209 209 206 204 204 205 211 214 219 222
256 251 250 249 248 248 245 246 244 237 243 236 228 244 184 235 180 182 191 206 212 212 217 213 219 213 214 212 208 204 203 208 207 198 195 203 201 203 206 213 216 218 224
256 249 248 248 247 246 247 245 243 238 243 239 214 217 231 240 221 202 176 192 204 210 210 214 216 212 206 207 206 205 205 214 211 209 204 202 198 204 207 210 213 218 226
261 254 247 243 244 243 243 243 241 237 240 242 237 224 226 223 229 199 189 188 194 198 208 207 212 208 202 202 204 206 206 214 212 216 224 204 198 202 204 204 209 216 228
255 253 248 243 240 240 241 240 240 238 237 239 234 231 221 215 230 200 184 183 185 198 198 208 203 205 202 198 202 207 209 217 217 218 221 224 206 197 201 207 212 222 233
254 253 249 245 239 239 238 239 239 234 233 237 230 225 197 206 211 245 249 200 174 181 193 199 210 213 206 203 203 206 208 215 215 229 215 233 220 207 207 213 226 236 243
254 252 248 244 241 235 235 235 239 234 228 227 225 226 209 215 217 221 224 229 208 191 182 188 190 199 203 206 200 203 205 213 221 209 216 220 227 231 220 227 235 243 249
249 248 247 243 240 236 231 233 233 229 228 226 218 211 209 206 210 199 211 197 206 217 206 203 192 192 203 216 220 214 204 214 218 217 216 210 227 238 232 237 243 250 257
245 244 243 241 238 234 228 230 229 228 227 222 211 217 221 216 213 209 209 194 187 217 217 211 205 212 210 214 213 202 205 211 213 216 221 216 231 237 243 248 247 253 258
241 240 240 239 237 233 227 225 229 225 221 217 216 217 219 220 214 214 210 205 207 211 218 217 211 216 213 203 202 202 208 206 205 209 209 209 217 230 244 247 246 248 253
237 237 233 231 231 230 228 221 224 225 219 216 215 216 218 214 210 209 207 208 206 212 211 220 218 217 217 212 203 202 206 202 199 208 214 222 232 232 240 247 247 253 250
236 230 227 227 229 227 225 217 218 218 226 218 218 218 222 215 209 208 209 207 212 216 211 213 217 210 212 207 203 203 197 197 194 198 201 208 221 229 235 240 246 246 248
226 223 226 222 224 226 220 214 219 218 224 223 223 219 218 216 213 215 210 211 213 214 211 211 214 208 207 203 199 199 195 191 193 199 198 205 213 221 224 230 235 240 243
222 217 217 219 218 219 216 212 218 218 221 221 220 217 217 221 218 217 218 218 220 212 209 209 213 216 213 207 202 199 197 187 189 198 201 204 216 217 220 223 231 237 235
213 214 211 211 215 212 209 212 216 217 216 219 222 221 223 219 215 215 215 219 219 220 226 224 219 218 217 209 205 198 196 193 196 199 199 204 214 215 219 221 226 230 230
207 204 211 209 211 211 207 207 212 216 217 221 224 220 221 217 214 209 208 208 209 214 214 220 226 224 222 217 214 208 202 202 205 203 204 203 211 216 219 223 228 229 229
200 208 210 208 204 212 210 209 211 216 215 218 221 227 219 220 211 210 207 201 199 204 204 207 213 221 227 216 209 202 198 200 195 200 204 213 214 216 218 222 226 231 236
195 207 210 203 204 214 217 211 212 214 211 215 218 221 219 212 209 208 200 196 194 193 189 188 201 213 219 214 211 211 213 208 199 193 201 200 202 206 202 214 225 233 224
Wind_Speed_850mb
55 56 53 56 57 60 70 91 97 98 91 90 86 84 85 86 91 81 72 65 65 62 61 57 57 56 53 49 52 48 44 41 37 35 35 37 31 28 28 26 24 19 16
56 55 56 57 66 64 53 78 103 103 98 96 95 91 89 88 96 87 78 74 70 63 63 66 64 62 56 48 46 48 47 43 43 38 39 38 33 30 29 27 26 23 20
55 53 57 61 67 76 60 40 86 108 104 98 101 99 98 94 101 97 84 81 75 68 69 76 72 67 60 52 47 45 47 44 43 43 43 43 36 32 29 28 27 24 20
63 62 60 61 62 68 80 54 66 113 113 106 103 107 106 102 101 106 92 88 80 72 72 67 63 66 61 55 51 50 46 44 46 48 47 42 38 35 31 29 26 23 19
61 62 66 65 61 62 64 69 45 102 109 110 106 108 111 111 105 109 105 95 89 80 79 77 69 64 63 57 55 53 51 49 46 45 45 43 40 37 32 29 26 23 20
67 65 66 69 69 67 63 58 75 67 107 118 103 103 105 108 111 113 113 104 97 88 82 82 77 67 65 60 56 53 49 53 49 45 42 40 40 37 33 29 27 25 23
66 65 64 69 72 75 69 62 68 88 87 120 95 92 102 103 115 119 119 113 102 96 86 81 80 79 70 62 57 53 52 51 48 45 42 39 39 35 34 32 29 26 24
70 65 60 66 72 74 70 69 60 66 86 83 97 90 76 86 92 125 128 119 108 102 95 87 81 81 76 68 61 59 61 54 45 44 39 36 36 35 33 31 29 26 23
76 76 74 63 62 65 68 61 66 59 64 56 31 58 36 29 58 94 125 122 113 108 101 92 87 84 79 72 65 63 61 58 49 43 35 37 36 35 33 31 28 25 22
83 84 84 78 73 67 67 62 59 69 56 55 76 44 27 17 36 35 98 117 114 110 108 99 93 90 81 75 73 65 67 59 48 42 32 31 35 35 34 31 28 24 22
85 85 85 83 81 80 78 71 60 57 72 75 83 106 63 50 60 51 58 88 111 117 113 110 99 95 85 78 78 70 67 58 47 40 28 29 33 34 33 30 26 22 20
85 85 87 85 77 76 78 73 70 64 64 69 78 90 92 74 48 49 60 82 86 84 99 102 104 95 82 81 79 72 65 60 52 43 34 30 28 28 31 28 25 20 17
86 90 80 84 88 78 70 68 70 66 64 70 75 80 70 79 72 57 47 77 69 69 60 76 81 87 92 90 78 74 69 63 56 48 46 33 29 25 25 26 22 17 17
91 88 88 84 84 82 78 68 66 70 61 71 82 75 85 74 79 49 19 66 58 54 67 64 71 73 78 77 82 81 77 68 57 56 58 50 39 29 26 25 24 21 19
95 94 91 87 86 86 79 75 66 68 68 75 77 86 103 90 99 87 74 43 70 49 57 63 76 80 80 75 88 95 87 77 70 67 66 57 37 31 32 29 28 25 23
92 91 92 92 93 84 83 76 74 66 70 77 87 96 107 98 93 65 73 61 51 55 64 73 93 93 96 91 87 89 85 81 79 79 69 60 48 34 32 30 29 28 24
86 87 93 91 91 90 87 78 76 74 70 86 84 87 110 96 97 94 89 84 42 67 57 80 93 89 91 93 84 82 83 90 77 65 64 60 40 47 37 31 28 29 26
84 85 86 87 89 91 90 82 77 76 76 95 93 98 92 89 93 101 97 96 71 63 89 76 93 105 92 90 97 98 83 70 70 63 62 54 64 38 38 34 34 28 32
81 87 81 87 86 88 91 85 69 68 81 97 93 93 99 96 92 97 101 99 96 94 90 106 90 92 92 93 94 94 96 82 70 62 63 66 45 44 42 45 38 37 35
83 84 89 83 87 87 89 90 76 64 80 86 98 93 93 96 85 106 103 102 108 104 106 93 74 78 86 91 98 103 93 79 73 73 68 62 57 53 50 45 48 39 37
81 81 84 93 84 83 88 95 87 75 76 98 91 85 92 93 94 96 99 106 110 104 98 86 69 75 86 96 106 102 97 90 82 82 75 68 63 63 58 54 48 45 39
80 78 78 81 89 75 89 93 92 78 76 103 90 90 89 92 91 95 99 97 97 102 91 83 84 80 86 97 110 107 103 94 81 77 76 70 72 67 59 54 52 49 40
73 81 80 85 86 81 87 81 87 88 96 94 101 94 92 98 96 93 87 82 80 84 79 74 82 85 87 100 113 107 103 100 92 80 75 68 70 64 60 54 48 43 40
67 72 74 90 89 83 91 79 78 86 93 98 101 95 95 99 94 91 87 84 77 74 68 68 62 67 72 80 90 112 106 96 89 80 74 71 72 65 59 51 45 42 31
53 67 69 81 94 79 91 89 78 83 86 97 98 93 90 94 96 92 88 82 79 70 61 52 47 46 47 69 87 99 98 93 81 70 73 77 74 64 53 48 43 38 39
42 51 59 80 86 63 72 85 77 80 96 100 101 100 97 97 97 95 90 86 78 77 70 63 60 59 66 72 86 92 96 93 89 67 71 67 60 63 47 49 46 53 48
Wind_Direction_850mb
264 257 250 246 236 237 248 219 222 223 221 221 219 215 210 205 203 205 203 206 204 203 205 198 197 198 199 200 205 206 207 207 205 204 206 204 204 214 222 230 243 257 271
267 259 251 247 243 237 234 240 224 222 221 219 221 217 214 208 204 206 204 204 208 207 208 202 200 201 198 195 203 204 208 206 202 205 212 215 225 224 227 235 243 253 262
266 263 257 246 243 240 241 234 233 226 224 219 223 218 216 211 206 208 205 205 209 220 212 211 205 206 207 209 204 202 204 197 199 201 214 226 226 227 232 236 243 250 237
268 265 258 252 245 247 250 245 235 225 224 219 220 223 218 213 211 210 209 207 210 215 211 209 200 203 205 209 205 210 204 199 199 206 215 222 228 231 233 237 241 232 231
268 266 259 252 250 249 252 260 239 220 219 220 219 225 221 217 212 212 210 210 210 213 209 209 209 208 208 208 215 218 219 200 201 204 214 223 227 232 235 237 226 223 223
265 265 262 254 249 250 248 254 235 233 222 220 215 221 229 224 214 214 211 212 211 212 216 215 218 218 216 217 220 220 212 200 199 213 219 220 227 230 230 220 216 216 217
263 263 261 255 249 250 250 249 254 243 219 216 205 205 214 223 225 214 212 212 211 211 216 218 220 219 217 219 219 207 200 202 201 210 213 225 228 222 212 210 211 215 221
259 257 259 257 251 250 251 250 253 258 235 212 200 207 200 203 206 215 213 210 212 211 213 220 221 218 218 214 211 200 199 205 203 205 217 215 209 207 207 209 211 216 224
254 252 251 252 253 248 249 252 241 247 255 250 214 201 186 193 194 197 205 208 211 213 213 218 219 217 217 215 206 200 203 207 209 209 209 206 204 204 205 211 214 219 222
256 251 250 249 248 248 245 246 244 237 243 236 228 244 184 235 180 182 191 206 212 212 217 213 219 213 214 212 208 204 203 208 207 198 195 203 201 203 206 213 216 218 224
256 249 248 248 247 246 247 245 243 238 243 239 214 217 231 240 221 202 176 192 204 210 210 214 216 212 206 207 206 205 205 214 211 209 204 202 198 204 207 210 213 218 226
261 254 247 243 244 243 243 243 241 237 240 242 237 224 226 223 229 199 189 188 194 198 208 207 212 208 202 202 204 206 206 214 212 216 224 204 198 202 204 204 209 216 228
255 253 248 243 240 240 241 240 240 238 237 239 234 231 221 215 230 200 184 183 185 198 198 208 203 205 202 198 202 207 209 217 217 218 221 224 206 197 201 207 212 222 233
254 253 249 245 239 239 238 239 239 234 233 237 230 225 197 206 211 245 249 200 174 181 193 199 210 213 206 203 203 206 208 215 215 229 215 233 220 207 207 213 226 236 243
254 252 248 244 241 235 235 235 239 234 228 227 225 226 209 215 217 221 224 229 208 191 182 188 190 199 203 206 200 203 205 213 221 209 216 220 227 231 220 227 235 243 249
249 248 247 243 240 236 231 233 233 229 228 226 218 211 209 206 210 199 211 197 206 217 206 203 192 192 203 216 220 214 204 214 218 217 216 210 227 238 232 237 243 250 257
245 244 243 241 238 234 228 230 229 228 227 222 211 217 221 216 213 209 209 194 187 217 217 211 205 212 210 214 213 202 205 211 213 216 221 216 231 237 243 248 247 253 258
241 240 240 239 237 233 227 225 229 225 221 217 216 217 219 220 214 214 210 205 207 211 218 217 211 216 213 203 202 202 208 206 205 209 209 209 217 230 244 247 246 248 253
237 237 233 231 231 230 228 221 224 225 219 216 215 216 218 214 210 209 207 208 206 212 211 220 218 217 217 212 203 202 206 202 199 208 214 222 232 232 240 247 247 253 250
236 230 227 227 229 227 225 217 218 218 226 218 218 218 222 215 209 208 209 207 212 216 211 213 217 210 212 207 203 203 197 197 194 198 201 208 221 229 235 240 246 246 248
226 223 226 222 224 226 220 214 219 218 224 223 223 219 218 216 213 215 210 211 213 214 211 211 214 208 207 203 199 199 195 191 193 199 198 205 213 221 224 230 235 240 243
222 217 217 219 218 219 216 212 218 218 221 221 220 217 217 221 218 217 218 218 220 212 209 209 213 216 213 207 202 199 197 187 189 198 201 204 216 217 220 223 231 237 235
213 214 211 211 215 212 209 212 216 217 216 219 222 221 223 219 215 215 215 219 219 220 226 224 219 218 217 209 205 198 196 193 196 199 199 204 214 215 219 221 226 230 230
207 204 211 209 211 211 207 207 212 216 217 221 224 220 221 217 214 209 208 208 209 214 214 220 226 224 222 217 214 208 202 202 205 203 204 203 211 216 219 223 228 229 229
200 208 210 208 204 212 210 209 211 216 215 218 221 227 219 220 211 210 207 201 199 204 204 207 213 221 227 216 209 202 198 200 195 200 204 213 214 216 218 222 226 231 236
195 207 210 203 204 214 217 211 212 214 211 215 218 221 219 212 209 208 200 196 194 193 189 188 201 213 219 214 211 211 213 208 199 193 201 200 202 206 202 214 225 233 224